User: anonymous   Login
Location: Innerarity Island Observatory
(30.3139°N, 87.4867°W)
Time: 04:21:23
(UTC-06:00)
Language:

JAS-2 - Orbit

View from above orbital plane
View from above orbital plane
View from above satellite
View from above satellite

Ground track
Ground track

The orbit data is extracted from the following two-line orbital elements,

1 24278U 96046B   15025.95102787 -.00000013  00000-0  19940-4 0  5673
2 24278 098.5236 014.1026 0351421 079.7332 335.3872 13.53041798910797
Epoch (UTC): 25 January 2015 22:49:28
Eccentricity: 0.0351421
inclination: 98.5236°
perigee height: 799 km
apogee height: 1322 km
right ascension of ascending node: 14.1026°
argument of perigee: 79.7332°
revolutions per day: 13.53041798
mean anomaly at epoch: 335.3872°
orbit number at epoch: 91079

The dashed part of the orbit path shows where the satellite is in the earth's shadow,  

DLR